Probability
0 0 0 0 0 0 0 0 0 0 0 0 0 0 0 0 0 0 0 0 0 0 0 0 0 0 0 0 0 0 0 0 0 0 0 0 0 0 0 0 0 0 0 0
0 0 0 0 0 0 0 0 0 0 0 0 0 0 0 0 0 0 0 0 0 0 0 0 0 0 0 0 0 0 0 0 0 0 0 0 0 0 0 0 0 0 0 0
0 0 0 0 0 0 0 0 0 0 0 0 0 0 0 0 0 0 0 0 0 0 0 0 0 0 0 0 0 0 0 0 0 0 0 0 0 0 0 0 0 0 0 0
0 0 0 0 0 0 0 0 0 0 0 0 0 0 0 0 0 0 0 0 0 0 0 0 0 0 0 0 0 0 0 0 0 0 0 0 0 0 0 0 0 0 0 0
0 0 0 0 0 0 0 0 0 0 0 0 0 0 0 0 0 0 0 0 0 0 0 0 0 0 0 0 0 0 0 0 0 0 0 0 0 0 0 0 0 0 0 0
0 0 0 0 0 0 0 0 0 0 0 0 0 0 0 0 0 0 0 0 0 0 0 0 0 0 0 0 0 0 0 0 0 0 0 0 0 0 0 0 0 0 0 0
0 0 0 0 0 0 0 0 0 0 0 0 0 0 0 0 0 0 0 0 0 0 0 0 0 0 0 0 0 0 0 0 0 0 0 0 0 0 0 0 0 0 0 0
0 0 0 0 0 0 0 0 0 0 0 0 0 0 0 0 0 0 0 0 0 0 0 0 0 0 0 0 0 0 0 0 0 0 0 0 0 0 0 0 0 0 0 0
0 0 0 0 0 0 0 0 0 0 0 0 0 0 0 0 0 0 0 0 0 0 0 0 0 0 0 0 0 0 0 0 0 0 0 0 0 0 0 0 0 0 0 0
0 0 0 0 0 0 0 0 0 0 0 0 0 0 0 0 0 0 0 0 0 0 0 0 0 0 0 0 0 0 0 0 0 0 0 0 0 0 0 0 0 0 0 0
0 0 0 0 0 0 0 0 0 0 0 0 0 0 0 0 0 0 0 0 0 0 0 0 0 0 0 0 0 0 0 0 0 0 0 0 0 0 0 0 0 0 0 0
0 0 0 0 0 0 0 0 0 0 0 0 0 0 0 0 0 0 0 0 0 0 0 0 0 0 0 0 0 0 0 0 0 0 0 0 0 0 0 0 0 0 0 0
0 0 0 0 0 0 0 0 0 0 0 0 0 0 0 0 0 0 0 0 0 0 0 0 0 0 0 0 0 0 0 0 0 0 0 0 0 0 0 0 0 0 0 0
0 0 0 0 0 0 0 0 0 0 0 0 0 0 0 0 0 0 0 0 0 0 0 0 0 0 0 0 0 0 0 0 0 0 0 0 0 0 0 0 0 0 0 0
0 0 0 0 0 0 0 0 0 0 0 0 0 0 0 0 0 0 0 0 0 0 0 0 0 0 0 0 0 0 0 0 0 0 0 0 0 0 0 0 0 0 0 0
0 0 0 0 0 0 0 0 0 0 0 0 0 0 0 0 0 0 0 0 0 0 0 0 0 0 0 0 0 0 0 0 0 0 0 0 0 0 0 0 0 0 0 0
0 0 0 0 0 0 0 0 0 0 0 0 0 0 0 0 0 0 0 0 0 0 0 0 0 0 0 0 0 0 0 0 0 0 0 0 0 0 0 0 0 0 0 0
0 0 0 0 0 0 0 0 0 0 0 0 0 0 0 0 0 0 0 0 0 0 0 0 0 0 0 0 0 0 0 0 0 0 0 0 0 0 0 0 0 0 0 0
0 0 0 0 0 0 0 0 0 0 0 0 0 0 0 0 0 0 0 0 0 0 0 0 0 0 0 0 0 0 0 0 0 0 0 0 0 0 0 0 0 0 0 0
0 0 0 0 0 0 0 0 0 0 0 0 0 0 0 0 0 0 0 0 0 0 0 0 0 0 0 0 0 0 0 0 0 0 0 0 0 0 0 0 0 0 0 0
0 0 0 0 0 0 0 0 0 0 0 0 0 0 0 0 0 0 0 0 0 0 0 0 0 0 0 0 0 0 0 0 0 0 0 0 0 0 0 0 0 0 0 0
0 0 0 0 0 0 0 0 0 0 0 0 0 0 0 0 0 0 0 0 0 0 0 0 0 0 0 0 0 0 0 0 0 0 0 0 0 0 0 0 0 0 0 0
0 0 0 0 0 0 0 0 0 0 0 0 0 0 0 0 0 0 0 0 0 0 0 0 0 0 0 0 0 0 0 0 0 0 0 0 0 0 0 0 0 0 0 0
0 0 0 0 0 0 0 0 0 0 0 0 0 0 0 0 0 0 0 0 0 0 0 0 0 0 0 0 0 0 0 0 0 0 0 0 0 0 0 0 0 0 0 0
0 0 0 0 0 0 0 0 0 0 0 0 0 0 0 0 0 0 0 0 0 0 0 0 0 0 0 0 0 0 0 0 0 0 0 0 0 0 0 0 0 0 0 0
0 0 0 0 0 0 0 0 0 0 0 0 0 0 0 0 0 0 0 0 0 0 0 0 0 0 0 0 0 0 0 0 0 0 0 0 0 0 0 0 0 0 0 0
0 0 0 0 0 0 0 0 0 0 0 0 0 0 0 0 0 0 0 0 0 0 0 0 0 0 0 0 0 0 0 0 0 0 0 0 0 0 0 0 0 0 0 0
Wind_Speed
6 6 5 6 7 7 7 8 8 7 6 7 8 9 8 7 6 6 6 6 7 7 6 5 5 4 5 4 4 3 3 2 2 2 1 1 2 3 3 3 4 4 4 4
3 4 4 4 7 9 8 7 7 5 6 7 5 5 5 7 8 7 7 8 8 7 7 6 6 5 5 4 4 3 3 3 3 2 1 1 2 2 3 3 4 4 4 4
4 5 2 6 9 10 8 7 9 9 9 5 5 7 9 8 8 8 8 7 8 8 7 7 7 6 6 5 4 4 4 3 2 2 2 2 2 2 2 3 3 4 4 4
1 2 5 11 6 8 9 8 8 7 7 9 9 8 6 7 9 8 7 7 7 6 6 6 5 5 5 4 4 4 3 3 3 2 2 2 2 2 3 2 3 3 3 4
3 2 7 9 5 6 7 6 7 8 7 6 5 4 2 3 6 7 7 6 6 6 6 5 6 5 5 4 3 3 3 4 4 3 3 2 2 3 3 2 3 3 3 4
4 2 6 9 7 2 5 4 5 8 8 7 8 4 5 4 4 5 5 5 5 5 4 5 4 5 5 4 3 4 5 5 4 4 3 3 4 3 2 2 3 3 3 3
4 4 9 10 4 4 4 9 5 7 8 9 9 8 6 6 5 5 5 4 5 5 4 3 4 5 5 4 4 5 4 3 3 4 4 4 3 3 2 2 2 3 4 4
5 4 11 7 4 7 10 4 3 6 7 8 6 5 7 7 7 6 5 5 5 5 4 3 4 5 4 2 3 3 3 3 3 3 3 2 3 3 3 2 2 3 3 4
11 11 9 6 8 7 6 5 5 6 7 9 8 7 8 7 7 6 6 5 5 6 4 2 3 4 4 3 2 2 2 2 3 3 2 2 2 3 2 2 2 3 2 3
4 8 7 6 5 4 6 7 7 7 8 9 9 9 8 7 7 6 5 5 5 6 5 2 1 2 2 1 1 2 1 2 2 2 3 3 2 2 2 2 2 2 2 3
5 6 4 5 6 6 5 5 6 6 7 9 10 9 8 8 7 7 5 4 5 5 5 3 2 1 0 0 2 2 1 1 2 2 2 3 2 2 3 3 3 2 2 2
7 8 6 9 9 7 7 7 8 8 6 6 9 9 8 7 6 6 6 5 5 5 5 3 2 1 1 1 2 2 1 1 1 1 2 2 2 3 3 3 3 3 3 2
10 8 8 9 7 8 9 9 8 8 9 8 6 8 8 6 5 6 6 7 7 6 5 4 4 3 3 2 2 2 1 0 1 1 1 2 1 1 3 4 3 3 4 4
7 4 5 6 7 8 8 8 7 6 6 7 7 7 8 7 7 7 7 6 7 7 6 5 5 3 3 2 3 2 1 2 2 1 1 1 1 1 1 2 3 4 5 5
9 8 8 6 5 5 5 7 8 7 6 6 7 9 9 9 9 8 7 7 8 8 6 5 5 3 3 4 4 3 2 2 1 1 1 1 1 2 2 2 2 3 4 6
8 5 4 4 6 6 6 8 9 9 8 7 8 8 9 9 9 8 7 7 8 7 5 5 4 2 3 4 4 3 3 5 4 2 2 2 3 3 3 3 3 4 4 5
3 4 4 5 7 7 8 9 10 10 9 9 10 10 11 11 10 9 7 7 8 7 5 5 4 3 4 4 4 3 3 4 7 5 3 3 3 3 3 3 3 4 4 6
7 8 7 8 9 8 8 8 9 10 10 9 11 12 12 12 11 10 9 8 8 7 5 4 4 4 4 4 4 3 3 3 3 3 3 3 3 3 3 3 4 4 3 5
6 5 5 5 6 7 7 8 8 9 9 11 12 12 10 10 11 10 9 8 8 6 2 3 7 6 4 4 5 3 4 4 4 3 3 4 4 4 3 3 3 3 4 4
7 5 3 1 2 4 6 7 8 8 9 11 12 11 11 10 11 10 9 6 4 4 4 4 5 4 3 4 6 3 4 4 3 3 3 3 3 3 3 3 3 3 3 3
7 5 3 2 2 3 5 7 9 9 8 10 12 12 11 10 10 9 9 6 3 4 5 7 4 3 2 4 5 3 3 3 3 2 2 2 2 2 2 2 3 3 3 3
6 5 4 3 4 4 4 5 7 9 9 9 10 11 12 10 9 7 6 5 5 7 4 3 2 4 5 5 3 3 3 3 2 1 1 1 2 2 2 2 2 2 2 2
4 4 3 3 3 4 4 5 6 8 9 9 10 11 10 8 7 8 5 3 4 8 5 3 4 6 6 3 2 2 2 2 1 1 1 1 1 1 1 1 1 2 2 2
3 2 2 2 3 4 4 3 5 5 7 7 7 9 9 7 4 3 4 9 10 8 4 4 6 6 5 2 2 2 2 1 1 1 1 1 0 1 1 1 1 2 2 3
2 1 0 1 2 2 3 4 5 6 6 5 6 6 6 5 6 5 5 6 9 8 4 4 6 5 3 2 2 2 2 1 2 1 1 1 0 0 0 1 1 1 2 2
3 2 2 3 3 3 3 4 4 4 5 5 4 4 4 4 5 5 4 5 6 7 4 2 2 3 2 2 2 2 2 1 1 1 1 1 1 1 1 1 1 1 2 2
3 2 2 1 1 2 3 4 4 4 5 6 5 4 4 4 4 5 5 4 4 4 3 3 3 3 3 2 2 2 2 2 2 2 1 1 1 1 1 1 1 1 1 2
Wind_Direction
227 234 210 213 220 197 180 185 187 222 220 229 219 208 206 197 190 186 192 193 193 196 202 204 202 201 201 210 211 196 182 202 232 246 265 304 323 332 336 342 343 339 344 343
287 265 239 237 226 209 207 200 205 216 243 238 207 176 182 186 184 189 196 197 196 194 194 199 199 198 200 209 210 191 189 213 228 234 254 286 301 319 334 338 340 345 345 341
273 292 350 267 228 206 206 203 186 209 226 202 178 190 193 192 189 193 198 196 191 192 196 198 198 191 194 203 197 187 200 218 223 225 242 271 293 319 320 319 331 336 333 337
235 15 239 247 244 200 202 219 200 198 200 188 194 198 197 186 182 193 192 186 188 190 194 197 193 190 189 183 178 186 202 214 219 217 238 265 289 295 297 302 308 313 318 324
137 226 277 288 269 182 177 239 212 190 190 182 143 88 353 214 181 184 184 179 182 183 180 178 182 181 168 170 174 187 208 218 221 214 223 243 262 272 274 286 298 301 305 319
132 186 251 257 270 186 112 267 243 180 174 159 129 139 237 218 157 151 151 156 161 158 148 159 179 161 153 168 181 210 220 222 220 211 212 229 245 255 258 258 274 298 308 308
167 213 263 257 264 96 140 237 237 179 169 160 174 192 191 161 145 141 142 147 141 134 135 162 161 142 146 163 206 226 218 213 217 219 220 229 244 251 257 268 290 305 308 307
157 191 254 247 157 180 213 223 176 165 165 163 169 155 149 153 151 146 140 137 134 128 134 145 137 132 138 191 234 219 196 204 225 236 241 235 239 263 267 267 286 298 307 312
186 210 232 216 202 210 178 174 179 168 170 153 150 160 162 162 159 158 154 150 142 139 137 134 138 135 148 223 225 189 187 224 247 261 260 255 241 259 274 265 259 278 285 293
245 264 258 244 223 198 185 183 181 170 163 157 161 167 167 165 165 165 162 159 148 137 138 151 160 143 176 222 189 160 194 250 268 278 283 281 267 254 252 259 255 264 268 274
257 276 303 289 244 215 193 171 163 165 168 166 159 164 168 168 170 169 164 157 146 146 148 151 134 112 45 78 135 145 202 291 299 290 286 291 282 256 243 242 216 221 246 249
238 238 214 241 239 213 190 188 180 168 165 168 163 163 161 165 168 161 156 149 143 142 140 138 121 90 8 27 119 125 92 341 318 314 312 308 309 317 292 263 287 271 269 263
232 241 224 243 239 209 198 194 182 173 166 163 160 154 151 149 151 144 141 141 144 143 136 121 99 68 19 22 97 109 109 347 339 343 339 336 338 333 326 331 334 326 319 314
248 239 247 239 230 214 198 185 166 153 154 151 148 141 137 132 132 133 136 138 131 121 115 109 92 61 17 40 80 81 61 37 35 359 347 345 342 334 337 343 345 340 334 329
258 237 233 236 225 201 173 152 147 153 150 144 142 143 142 139 139 136 131 123 114 107 105 101 90 61 27 52 70 66 61 41 27 13 7 3 3 10 13 13 3 345 349 351
262 258 227 204 198 189 169 165 167 171 164 155 150 147 142 135 130 125 124 124 119 116 113 104 95 73 56 63 68 59 46 48 57 42 27 26 26 29 26 25 22 19 15 359
250 253 236 223 210 201 192 187 181 174 165 158 155 144 135 128 123 121 119 117 115 114 111 107 99 73 66 70 76 67 52 44 52 52 41 38 38 37 36 39 38 34 22 17
242 232 223 214 208 206 200 184 172 165 162 156 146 142 142 142 141 138 132 122 109 96 89 101 97 83 66 62 73 70 69 61 55 55 48 46 45 42 41 39 32 28 14 16
307 273 246 229 209 194 187 179 168 158 152 148 147 148 146 142 140 137 133 126 123 119 115 103 100 87 71 64 79 73 73 69 60 50 49 48 49 41 41 40 34 25 22 23
340 332 300 248 174 162 163 156 148 144 146 144 140 136 136 139 139 135 128 125 141 151 149 124 104 91 79 75 80 77 74 72 67 56 52 49 45 38 33 34 34 30 26 23
350 355 14 65 101 120 135 139 139 139 140 142 143 145 142 140 139 136 131 129 157 149 135 122 113 113 103 97 82 79 76 75 72 68 64 58 49 41 33 28 26 26 24 16
353 4 24 57 85 88 101 120 128 130 130 131 133 136 136 137 137 130 133 148 161 151 137 128 135 132 123 105 91 85 83 83 83 82 73 59 52 41 26 19 14 10 6 358
352 5 23 54 90 95 90 103 121 130 134 138 141 144 144 146 147 144 149 168 158 154 145 154 159 143 124 109 107 101 99 95 92 94 85 71 61 53 28 7 354 348 341 336
331 358 9 40 84 97 105 116 118 122 127 130 138 144 142 138 137 149 149 161 165 159 157 171 168 153 134 125 122 121 122 118 121 126 107 78 48 31 15 349 335 331 330 333
288 271 159 121 122 137 146 131 118 119 121 122 130 138 140 144 149 159 157 162 169 165 166 177 171 156 139 141 147 152 162 174 165 154 143 137 134 156 284 302 317 325 328 329
260 235 217 205 192 177 160 143 139 141 136 134 136 140 139 139 144 148 154 165 173 170 169 174 171 156 153 162 169 172 174 171 138 135 159 172 186 202 247 296 328 333 328 326
251 235 211 199 196 176 162 157 156 159 156 152 153 159 154 151 151 157 161 161 164 166 169 175 175 172 171 174 175 174 172 174 174 174 181 190 202 220 241 274 295 309 310 310